Regional Weather Roundup
Issued by NWS

Home | Current Version | Previous Version | Graphics & Text | Print | Product List | Glossary On
Versions: 1 2 3 4 5 6 7 8 9 10 11 12 13 14 15 16 17 18 19 20 21 22 23 24 25 26 27
000
ASUS45 KSLC 220310
RWRUT

UTAH REGIONAL WEATHER ROUNDUP
NATIONAL WEATHER SERVICE SALT LAKE CITY UT
900 PM MDT WED JUN 21 2017

UTZ001>011-023>025-220400-

NORTHERN UTAH

CITY           SKY/WX    TMP DP  RH WIND       PRES   REMARKS
BRIGHAM CITY   PTCLDY    84  43  23 N16       29.92R
HILL AFB       PTCLDY    84  51  32 N8        29.93R
LOGAN          PTCLDY    79  52  38 N10       29.93R
OGDEN          PTCLDY    87  49  26 N14       29.89S
SALT LAKE CITY PTCLDY    90  48  23 N9        29.86S
TOOELE VALLEY  PTCLDY    79  54  41 CALM      29.90R
WENDOVER         N/A     86  43  22 E17G41    29.93F
HEBER CITY     MOCLDY    77  46  33 CALM      29.98R
WEST JORDAN    PTCLDY    86  56  36 NW3       29.92S

$$

UTZ011>015-024>027-220400-

CENTRAL/NORTHEAST UTAH

CITY           SKY/WX    TMP DP  RH WIND       PRES   REMARKS
PROVO AIRPORT  MOCLDY    85  56  37 NW13      29.89R
MOAB/CANYONLAN MOCLDY    92  27   9 N9        29.84S
DELTA          MOCLDY    90  27  10 E5        29.84S
PRICE          PTCLDY    87  28  12 W5        30.00R
ROOSEVELT      CLEAR     84  41  21 N3        29.94S
VERNAL         CLEAR     77  47  34 SW5       29.94S

$$

UTZ013>016-019>022-027-220400-

SOUTHERN UTAH

CITY           SKY/WX    TMP DP  RH WIND       PRES   REMARKS
BRYCE CANYON   PTCLDY    66  30  26 W5        30.20S HAZE
CEDAR CITY     CLEAR     84  23  10 SW8       29.99R
MILFORD        CLEAR     89  21   8 S12       29.90R
ST GEORGE      MOCLDY   104  26   6 W7        29.72S HX  96
HANKSVILLE     PTCLDY    91  30  11 CALM      29.86R
BLANDING       CLEAR     75  37  25 N9        30.06S

$$

REGIONAL REPORTS     COLORADO/ARIZONA

CITY           SKY/WX    TMP DP  RH WIND       PRES   REMARKS
CRAIG, CO      CLEAR     70  47  43 E7        30.06S
GRAND JUNCTION CLEAR     86  33  15 E6        29.90S
RIFLE, CO      CLOUDY    83  38  20 CALM      30.01R
MONTROSE, CO   PTCLDY    85  34  16 S13       30.03R
CORTEZ, CO     CLEAR     72  46  39 SE6       30.00S
COLORADO CITY    N/A     93  28  10 W8        29.96S
PAGE, AZ       CLEAR     99  27   8 NW7       29.83R HX  92
GRAND CANYON   PTCLDY    84  25  11 W8        30.12R
KINGMAN, AZ    CLEAR     98  31   9 SW14      29.82S HX  92
FLAGSTAFF, AZ  PTCLDY    79  27  14 W5        30.15S

$$

REGIONAL REPORTS    NEVADA/IDAHO/WYOMING

CITY           SKY/WX    TMP DP  RH WIND       PRES   REMARKS
LAS VEGAS, NV  CLEAR    107  19   4 SW12G20   29.66S HX  98
ELY, NY        PTCLDY    88  30  12 SW9       30.01R
ELKO, NV       CLEAR     84  42  22 N13       30.00R
POCATELLO, ID  CLOUDY    73  38  27 SW16      29.94S
BURLEY, ID     CLEAR     73  34  23 W14       29.95R
FORT BRIDGER,    N/A     73  44  35 NW5       30.16R
EVANSTON, WY   CLEAR     71  50  47 NW6       30.14R
ROCK SPRINGS,  CLOUDY    75  40  28 W16       30.07R
KEMMERER, WY     N/A     68  43  40 W10       30.14S

$$




USA.gov is the U.S. government's official web portal to all federal, state and local government web resources and services.